Location: Unspecified
(56.5167°N, 0.0000°E)
Time: 13:55:19
(UTC+02:00)

Cosmos 2058 - Visible Passes

Search period start: 21 October 2018 00:00
Search period end: 30 October 2018 23:00
Orbit: 562 x 585 km, 82.5° (Epoch: 21 October)

Date Brightness Start Highest point End Pass type
(mag) Time Alt. Az. Time Alt. Az. Time Alt. Az.
21 Oct 3.9 20:40:35 10° NNW 20:44:34 48° W 20:48:32 10° S visible
22 Oct 4.4 20:43:47 10° NNW 20:47:37 38° W 20:51:27 10° SSW visible
23 Oct 6.7 07:42:49 10° E 07:43:22 10° ENE 07:43:55 10° ENE visible
23 Oct 4.8 20:47:01 10° NNW 20:50:41 31° W 20:54:19 10° SSW visible
24 Oct 6.3 07:44:29 10° ESE 07:46:20 13° E 07:48:09 10° NE visible
24 Oct 3.2 19:12:58 10° N 19:16:58 45° ENE 19:20:57 10° SE visible
24 Oct 5.3 20:50:16 10° NNW 20:53:42 25° W 20:57:07 10° SW visible
25 Oct 6.1 07:46:50 10° ESE 07:49:18 16° E 07:51:46 10° NE visible
25 Oct 3.0 19:16:02 10° N 19:20:07 57° ENE 19:24:12 10° SSE visible
25 Oct 5.6 20:53:36 10° NW 20:56:42 21° W 20:59:49 10° SW visible
26 Oct 6.0 07:49:22 10° SE 07:52:17 19° E 07:55:12 10° NE visible
26 Oct 2.8 19:19:07 10° N 19:23:16 71° ENE 19:27:24 10° SSE visible
26 Oct 6.0 20:56:59 10° NW 20:59:43 17° W 21:02:25 10° SW visible
27 Oct 5.7 07:52:01 10° SE 07:55:17 23° E 07:58:34 10° NE visible
27 Oct 2.9 19:22:13 10° NNW 19:26:23 88° ENE 19:30:32 10° SSE visible
27 Oct 6.3 21:00:29 10° NW 21:02:41 14° W 21:04:52 10° WSW visible
28 Oct 5.3 06:54:47 10° SSE 06:58:19 28° E 07:01:51 10° NNE visible
28 Oct 3.2 18:25:21 10° NNW 18:29:29 75° W 18:33:38 10° S visible
28 Oct 6.5 20:04:17 10° WNW 20:05:39 11° W 20:07:01 10° W visible
29 Oct 4.8 06:57:37 10° SSE 07:01:20 35° E 07:05:06 10° NNE visible
29 Oct 3.6 18:28:29 10° NNW 18:32:35 59° W 18:36:40 10° S visible
30 Oct 4.3 07:00:31 10° SSE 07:04:23 43° E 07:08:18 10° NNE visible
30 Oct 4.1 18:31:39 10° NNW 18:35:39 47° W 18:39:39 10° SSW visible
